Flag for Morocco Weather past 2 weeks in Casablanca, Morocco

Now
77 °F

Partly sunny.


Feels Like: 79 °F
Forecast: 73 / 79 °F
Wind: 18 mph from Northwest

Location: Casablanca Airport

Current Time: Jul 29, 2015 at 5:39:52 PM

Latest Report: Jul 29, 2015 at 5:00 PM


Visibility: N/A

Pressure: 29.89 "Hg

Humidity: 74%

Dew point: 68 °F

Location of CasablancaLocation

Historic Weather in Casablanca — Graph

°F

Casablanca temperature yesterday

Maximum temperature yesterday: 81 °F (at 2:00 PM)
Minimum temperature yesterday: 72 °F (at 7:00 AM)
Average temperature yesterday: 77 °F

Past Weeks' High & Low Weather Summary

 TemperatureHumidityPressure
High86 °F (Jul 16, 5:00 PM)100% (Jul 23, 7:00 AM)30.04 "Hg (Jul 23, 7:00 AM)
Low70 °F (Jul 17, 6:00 AM)31% (Jul 21, 12:00 PM)29.83 "Hg (Jul 15, 4:00 PM)
Average77 °F77%29.95 "Hg
* Reported Jul 14 3:00 PM — Jul 29 4:00 PM, Casablanca, Weather by CustomWeather, © 2015

Note: Actual official high and low records may vary slightly from our data, if they occured in-between our weather recording intervals... More about our weather records

Advertising

Casablanca weather history for previous 24 hours

 ConditionsComfort  
Time TempWeatherWind HumidityBarometerVisibility
4:00 PM
Wed, Jul 29
79 °FSunny.18 mph70%29.92 "Hg10 mi
3:00 PM79 °FSunny.14 mph70%29.92 "Hg10 mi
2:00 PM79 °FSunny.14 mph70%29.92 "Hg10 mi
1:00 PM79 °FScattered clouds.14 mph74%29.92 "HgN/A
12:00 PM77 °FPassing clouds.14 mph74%29.92 "HgN/A
11:00 AM77 °FScattered clouds.8 mph74%29.95 "Hg5 mi
10:00 AM75 °FPassing clouds.12 mph78%29.92 "Hg5 mi
9:00 AM73 °FPartly sunny.8 mph78%29.92 "Hg5 mi
8:00 AM72 °FPartly sunny.10 mph83%29.92 "Hg5 mi
7:00 AM72 °FPartly sunny.6 mph83%29.92 "Hg5 mi
1:00 AM73 °FPassing clouds.12 mph89%29.92 "HgN/A
12:00 AM73 °FPassing clouds.14 mph89%29.92 "HgN/A
11:00 PM
Tue, Jul 28
73 °FPassing clouds.3 mph94%29.92 "HgN/A
10:00 PM73 °FPassing clouds.5 mph89%29.92 "HgN/A
9:00 PM75 °FPassing clouds.9 mph89%29.89 "HgN/A
8:00 PM77 °FSunny.6 mph79%29.86 "Hg10 mi
7:00 PM79 °FPassing clouds.9 mph79%29.86 "HgN/A
6:00 PM81 °FSunny.14 mph70%29.86 "Hg10 mi
5:00 PM81 °FPassing clouds.13 mph70%29.86 "HgN/A
Weather by CustomWeather, © 2015

See weather overviewHow to use our weather pages